Weather Roundup
Issued by NWS Corpus Christi, TX

Home | Current Version | Previous Version | Text Only | Print | Product List | Glossary On
Versions: 1 2 3 4 5 6 7 8 9 10 11 12 13 14 15 16 17 18 19 20 21 22 23 24 25 26 27 28 29 30 31 32 33 34 35 36 37 38 39 40 41 42 43 44 45 46 47 48 49 50
000
ASUS44 KCRP 250610
HRRCRP

SOUTH TEXAS REGIONAL WEATHER ROUNDUP
NATIONAL WEATHER SERVICE CORPUS CHRISTI TX
100 AM CDT SAT MAR 25 2017


TXZ229>244-250700-
...CORPUS CHRISTI AREA OBSERVATIONS...

CITY           SKY/WX    TMP DP  RH WIND       PRES   REMARKS
CORPUS CHRISTI PTCLDY    72  70  93 S9        29.97F
NAS CORPUS CHR CLOUDY   N/A N/A N/A S13       29.97S HAZE
ROCKPORT       CLOUDY    72  69  90 S7        29.98R FOG
KINGSVILLE NAS MOCLDY    71  70  96 S8        29.97S
ALICE          CLEAR     67  66  97 S5        29.97S
ORANGE GROVE   CLEAR     69  68  96 S6        29.99R
FALFURRIAS     CLEAR     69  65  86 CALM      29.97S
$$

...VICTORIA AREA OBSERVATIONS...

CITY           SKY/WX    TMP DP  RH WIND       PRES   REMARKS
VICTORIA       CLOUDY    73  69  87 S14       29.97S
BEEVILLE       FAIR     N/A N/A N/A S7        29.98S
PLEASANTON     CLEAR     62  61  96 CALM      29.97S
SAN ANTONIO    PTCLDY    59  41  51 NW6       29.98S
$$

...LAREDO AREA OBSERVATIONS...

CITY           SKY/WX    TMP DP  RH WIND       PRES   REMARKS
LAREDO         PTCLDY    73  66  78 E6        29.97S
COTULLA        PTCLDY    71  59  65 S7        29.96S
DEL RIO        CLEAR     60  38  43 S3        29.98S
MCALLEN        CLOUDY    75  70  84 SE12      29.97S
HEBBRONVILLE   CLEAR     67  63  86 S5        29.99S
$$

...OTHER TEXAS OBSERVATIONS...

CITY           SKY/WX    TMP DP  RH WIND       PRES   REMARKS
BROWNSVILLE    CLOUDY    73  70  90 S10       29.98F
HOUSTON        MOCLDY    69  59  70 SW6       29.95F THUNDER
COL. STATION   CLEAR     69  66  90 S12       29.92S
AUSTIN         CLEAR     64  60  87 SW7       29.94F
WACO           CLEAR     62  42  47 W12       29.90R
FORT WORTH     CLEAR     66  42  41 W17       29.86R
WICHITA FALLS  MOCLDY    54  43  66 NW18G28   29.92R
LUBBOCK        CLEAR     45  36  70 NW13      30.08R
EL PASO        CLEAR     67  22  18 W18G33    30.11F
$$

...MARINE OBSERVATIONS...

STATION/POSITION TIME  SKY/WX   TEMP    WIND        PRES    VSBY  WAVE   SWELL
                                AIR SEA DIR/SP/G                  HT/PER HT/PER
                 (UTC)          (F)     (DEG/KT/KT) (MB)    (MI)  (FT/S) (FT/S)
PORT ARANSAS     0600            71 71  170/ 12/ 14 1014.9S
BUOY 90 E PORT A 0550            74 72  170/ 19/ 21 1015.3F         8/ 8   3/15
BUOY 45 SE BAFFI 0550            73     170/ 14/ 16 1014.5F         8/ 8   7/ 8
BUOY 200 E PT IS 0550            76 76  150/ 17/ 21 1016.6F         8/ 8
BUOY 15 E GALVES 0550            72 70  190/ 19/ 21 1014.6R         6/ 8
$$




USA.gov is the U.S. government's official web portal to all federal, state and local government web resources and services.